GW0587 Weather Reports


time (UTC)temp
F
wind
direction
speed
knots
gust
knots
rain 1hr
in
rain 24hr
in
rain mn
in
humidity
%
barometer
mb
20260505011548 73 0 0.9 5.2 0.00 0.00 0.00 48 1010.3
20260505010106 74 0 0.9 11.3 0.00 0.00 0.00 48 1010.3
20260505004559 74 169 2.6 11.3 0.00 0.00 0.00 47 1010.2
20260505003051 75 231 1.7 7.8 0.00 0.00 0.00 46 1010.1
20260505001547 76 259 1.7 6.1 0.00 0.00 0.00 44 1010.0
20260505000056 76 242 0.9 7.8 0.00 0.00 0.00 43 1010.1
20260504234547 77 256 0.9 7.8 0.00 0.00 0.00 43 1010.2
20260504233041 77 223 0.9 7.0 0.00 0.00 0.00 41 1010.2
20260504231554 78 259 1.7 9.6 0.00 0.00 0.00 40 1010.2
20260504230047 78 195 0.9 7.8 0.00 0.00 0.00 40 1010.3
20260504224546 78 284 0.9 12.2 0.00 0.00 0.00 40 1010.3
20260504223046 79 264 0.0 8.7 0.00 0.00 0.00 40 1010.4
20260504221605 79 0 0.9 7.8 0.00 0.00 0.00 40 1010.2
20260504220047 79 271 1.7 7.8 0.00 0.00 0.00 41 1010.3
20260504214547 79 173 2.6 8.7 0.00 0.00 0.00 38 1010.3
20260504213045 79 265 2.6 13.0 0.00 0.00 0.00 39 1010.4
20260504211600 80 245 1.7 8.7 0.00 0.00 0.00 40 1010.3
20260504210047 80 273 0.9 13.0 0.00 0.00 0.00 40 1010.5
20260504204540 80 144 2.6 7.8 0.00 0.00 0.00 39 1010.7
20260504203046 81 234 1.7 10.4 0.00 0.00 0.00 39 1010.9
20260504201544 81 238 1.7 9.6 0.00 0.00 0.00 40 1011.0
20260504200041 80 168 1.7 10.4 0.00 0.00 0.00 40 1011.5
20260504194553 80 210 3.5 9.6 0.00 0.00 0.00 39 1011.8
20260504193046 81 154 2.6 13.9 0.00 0.00 0.00 38 1012.0
20260504191609 80 0 1.7 8.7 0.00 0.00 0.00 39 1011.9
20260504190041 81 263 2.6 9.6 0.00 0.00 0.00 37 1012.2
20260504184550 81 240 2.6 8.7 0.00 0.00 0.00 39 1012.3
20260504183047 80 180 2.6 9.6 0.00 0.00 0.00 41 1012.4
20260504181547 79 319 2.6 7.0 0.00 0.00 0.00 43 1012.8
20260504180047 79 263 1.7 8.7 0.00 0.00 0.00 42 1013.1
20260504174542 80 248 3.5 8.7 0.00 0.00 0.00 41 1013.2
20260504173043 80 182 1.7 7.8 0.00 0.00 0.00 42 1013.3
20260504171543 79 173 2.6 11.3 0.00 0.00 0.00 43 1013.6
20260504081546 62 0 0.0 2.6 0.00 0.00 0.00 65 1014.4
20260504044546 60 0 0.0 0.0 0.00 0.00 0.00 64 1015.9
20260504043043 60 0 0.0 0.0 0.00 0.00 0.00 63 1015.9
20260504041544 60 0 0.0 0.0 0.00 0.00 0.00 62 1016.0
20260504040046 60 0 0.0 0.9 0.00 0.00 0.00 62 1016.0
20260504034553 61 0 0.0 0.0 0.00 0.00 0.00 61 1016.0
20260504033056 61 0 0.0 0.0 0.00 0.00 0.00 60 1016.1
20260504031600 62 0 0.0 0.0 0.00 0.00 0.00 59 1016.3
20260504030109 62 0 0.0 0.0 0.00 0.00 0.00 57 1016.4
20260504024549 63 0 0.0 0.0 0.00 0.00 0.00 55 1016.2
20260504023041 63 0 0.0 0.0 0.00 0.00 0.00 55 1016.2
20260504021548 64 0 0.0 0.0 0.00 0.00 0.00 52 1016.1
20260504020048 65 0 0.0 0.0 0.00 0.00 0.00 50 1016.1
20260504014549 66 0 0.0 0.0 0.00 0.00 0.00 48 1016.0
20260504013044 67 0 0.0 0.0 0.00 0.00 0.00 47 1015.9